Time,TemperatureF,DewpointF,PressureIn,WindDirection,WindDirectionDegrees,WindSpeedMPH,WindSpeedGustMPH,Humidity,HourlyPrecipIn,Conditions,Clouds,dailyrainin,SolarRadiationWatts/m^2,SoftwareType,DateUTC
2013-02-11 00:01:00,6.0,0.0,-100.00,NW,314,7.0,20.0,76,0.00,,,0.00,0.000000,,2013-02-11 07:01:00,
2013-02-11 00:11:00,6.0,0.0,-100.00,NW,314,7.0,20.0,76,0.00,,,0.00,0.000000,,2013-02-11 07:11:00,
2013-02-11 00:21:00,6.0,0.0,-100.00,NW,314,7.0,20.0,76,0.00,,,0.00,0.000000,,2013-02-11 07:21:00,
2013-02-11 00:32:00,6.0,0.0,-100.00,NW,314,7.0,20.0,76,0.00,,,0.00,0.000000,,2013-02-11 07:32:00,
2013-02-11 01:01:00,6.0,0.0,-100.00,NW,306,7.0,20.0,75,0.00,,,0.00,0.000000,,2013-02-11 08:01:00,
2013-02-11 01:11:00,6.0,0.0,-100.00,NW,306,7.0,20.0,75,0.00,,,0.00,0.000000,,2013-02-11 08:11:00,
2013-02-11 01:21:00,6.0,0.0,-100.00,NW,306,7.0,20.0,75,0.00,,,0.00,0.000000,,2013-02-11 08:21:00,
2013-02-11 01:31:00,6.0,0.0,-100.00,NW,306,7.0,20.0,75,0.00,,,0.00,0.000000,,2013-02-11 08:31:00,
2013-02-11 02:01:00,5.0,-1.0,-100.00,NW,308,7.0,16.0,76,0.00,,,0.00,0.000000,,2013-02-11 09:01:00,
2013-02-11 02:12:00,5.0,-1.0,-100.00,NW,308,7.0,16.0,76,0.00,,,0.00,0.000000,,2013-02-11 09:12:00,
2013-02-11 02:21:00,5.0,-1.0,-100.00,NW,308,7.0,16.0,76,0.00,,,0.00,0.000000,,2013-02-11 09:21:00,
2013-02-11 02:32:00,5.0,-1.0,-100.00,NW,308,7.0,16.0,76,0.00,,,0.00,0.000000,,2013-02-11 09:32:00,
2013-02-11 02:52:00,4.0,-2.0,-100.00,NW,312,4.0,13.0,76,0.00,,,0.00,0.000000,,2013-02-11 09:52:00,
2013-02-11 03:01:00,4.0,-2.0,-100.00,NW,312,4.0,13.0,76,0.00,,,0.00,0.000000,,2013-02-11 10:01:00,
2013-02-11 03:11:00,4.0,-2.0,-100.00,NW,312,4.0,13.0,76,0.00,,,0.00,0.000000,,2013-02-11 10:11:00,
2013-02-11 03:21:00,4.0,-2.0,-100.00,NW,312,4.0,13.0,76,0.00,,,0.00,0.000000,,2013-02-11 10:21:00,
2013-02-11 03:31:00,4.0,-2.0,-100.00,NW,312,4.0,13.0,76,0.00,,,0.00,0.000000,,2013-02-11 10:31:00,
2013-02-11 04:02:00,4.0,-2.0,-100.00,NW,315,5.0,11.0,77,0.00,,,0.00,0.000000,,2013-02-11 11:02:00,
2013-02-11 04:11:00,4.0,-2.0,-100.00,NW,315,5.0,11.0,77,0.00,,,0.00,0.000000,,2013-02-11 11:11:00,
2013-02-11 04:22:00,4.0,-2.0,-100.00,NW,315,5.0,11.0,77,0.00,,,0.00,0.000000,,2013-02-11 11:22:00,
2013-02-11 04:32:00,4.0,-2.0,-100.00,NW,315,5.0,11.0,77,0.00,,,0.00,0.000000,,2013-02-11 11:32:00,
2013-02-11 05:03:00,2.0,-4.0,-100.00,North,359,2.0,8.0,76,0.00,,,0.00,0.000000,,2013-02-11 12:03:00,
2013-02-11 05:12:00,2.0,-4.0,-100.00,North,359,2.0,8.0,76,0.00,,,0.00,0.000000,,2013-02-11 12:12:00,
2013-02-11 05:22:00,2.0,-4.0,-100.00,North,359,2.0,8.0,76,0.00,,,0.00,0.000000,,2013-02-11 12:22:00,
2013-02-11 05:32:00,2.0,-4.0,-100.00,North,359,2.0,8.0,76,0.00,,,0.00,0.000000,,2013-02-11 12:32:00,
2013-02-11 06:02:00,3.0,-3.0,-100.00,NW,324,2.0,7.0,77,0.00,,,-99.99,0.000000,,2013-02-11 13:02:00,
2013-02-11 06:12:00,3.0,-3.0,-100.00,NW,324,2.0,7.0,77,0.00,,,-99.99,0.000000,,2013-02-11 13:12:00,
2013-02-11 06:22:00,3.0,-3.0,-100.00,NW,324,2.0,7.0,77,0.00,,,-99.99,0.000000,,2013-02-11 13:22:00,
2013-02-11 06:32:00,3.0,-3.0,-100.00,NW,324,2.0,7.0,77,0.00,,,-99.99,0.000000,,2013-02-11 13:32:00,
2013-02-11 07:02:00,4.0,-1.0,-100.00,NNW,348,3.0,9.0,78,0.00,,,-99.99,0.000000,,2013-02-11 14:02:00,
2013-02-11 07:11:00,4.0,-1.0,-100.00,NNW,348,3.0,9.0,78,0.00,,,-99.99,0.000000,,2013-02-11 14:11:00,
2013-02-11 07:22:00,4.0,-1.0,-100.00,NNW,348,3.0,9.0,78,0.00,,,-99.99,0.000000,,2013-02-11 14:22:00,
2013-02-11 07:32:00,4.0,-1.0,-100.00,NNW,348,3.0,9.0,78,0.00,,,-99.99,0.000000,,2013-02-11 14:32:00,
2013-02-11 08:02:00,3.0,-3.0,-100.00,NNE,12,1.0,7.0,77,0.00,,,0.00,6.000000,,2013-02-11 15:02:00,
2013-02-11 08:11:00,3.0,-3.0,-100.00,NNE,12,1.0,7.0,77,0.00,,,0.00,6.000000,,2013-02-11 15:11:00,
2013-02-11 08:22:00,3.0,-3.0,-100.00,NNE,12,1.0,7.0,77,0.00,,,0.00,6.000000,,2013-02-11 15:22:00,
2013-02-11 08:32:00,3.0,-3.0,-100.00,NNE,12,1.0,7.0,77,0.00,,,0.00,6.000000,,2013-02-11 15:32:00,
2013-02-11 09:02:00,11.0,4.0,-100.00,WNW,292,2.0,5.0,72,0.00,,,0.00,108.000000,,2013-02-11 16:02:00,
2013-02-11 09:12:00,11.0,4.0,-100.00,WNW,292,2.0,5.0,72,0.00,,,0.00,108.000000,,2013-02-11 16:12:00,
2013-02-11 09:22:00,11.0,4.0,-100.00,WNW,292,2.0,5.0,72,0.00,,,0.00,108.000000,,2013-02-11 16:22:00,
2013-02-11 09:32:00,11.0,4.0,-100.00,WNW,292,2.0,5.0,72,0.00,,,0.00,108.000000,,2013-02-11 16:32:00,
2013-02-11 10:02:00,13.0,4.0,-100.00,WNW,293,7.0,16.0,66,0.00,,,0.00,294.000000,,2013-02-11 17:02:00,
2013-02-11 10:11:00,13.0,4.0,-100.00,WNW,293,7.0,16.0,66,0.00,,,0.00,294.000000,,2013-02-11 17:11:00,
2013-02-11 10:22:00,13.0,4.0,-100.00,WNW,293,7.0,16.0,66,0.00,,,0.00,294.000000,,2013-02-11 17:22:00,
2013-02-11 10:32:00,13.0,4.0,-100.00,WNW,293,7.0,16.0,66,0.00,,,0.00,294.000000,,2013-02-11 17:32:00,
2013-02-11 11:02:00,17.0,4.0,-100.00,WNW,289,6.0,12.0,56,0.00,,,0.00,500.000000,,2013-02-11 18:02:00,
2013-02-11 11:11:00,17.0,4.0,-100.00,WNW,289,6.0,12.0,56,0.00,,,0.00,500.000000,,2013-02-11 18:11:00,
2013-02-11 11:21:00,17.0,4.0,-100.00,WNW,289,6.0,12.0,56,0.00,,,0.00,500.000000,,2013-02-11 18:21:00,
2013-02-11 11:32:00,17.0,4.0,-100.00,WNW,289,6.0,12.0,56,0.00,,,0.00,500.000000,,2013-02-11 18:32:00,
2013-02-11 12:02:00,20.0,5.0,-100.00,WSW,248,4.0,14.0,52,0.00,,,0.00,613.000000,,2013-02-11 19:02:00,
2013-02-11 12:11:00,20.0,5.0,-100.00,WSW,248,4.0,14.0,52,0.00,,,0.00,613.000000,,2013-02-11 19:11:00,
2013-02-11 12:21:00,20.0,5.0,-100.00,WSW,248,4.0,14.0,52,0.00,,,0.00,613.000000,,2013-02-11 19:21:00,
2013-02-11 12:32:00,20.0,5.0,-100.00,WSW,248,4.0,14.0,52,0.00,,,0.00,613.000000,,2013-02-11 19:32:00,
2013-02-11 13:01:00,23.0,7.0,-100.00,WSW,247,5.0,14.0,50,0.00,,,0.00,644.000000,,2013-02-11 20:01:00,
2013-02-11 13:11:00,23.0,7.0,-100.00,WSW,247,5.0,14.0,50,0.00,,,0.00,644.000000,,2013-02-11 20:11:00,
2013-02-11 13:21:00,23.0,7.0,-100.00,WSW,247,5.0,14.0,50,0.00,,,0.00,644.000000,,2013-02-11 20:21:00,
2013-02-11 13:32:00,23.0,7.0,-100.00,WSW,247,5.0,14.0,50,0.00,,,0.00,644.000000,,2013-02-11 20:32:00,
2013-02-11 14:02:00,22.0,6.0,-100.00,West,272,6.0,10.0,50,0.00,,,0.00,612.000000,,2013-02-11 21:02:00,
2013-02-11 14:11:00,22.0,6.0,-100.00,West,272,6.0,10.0,50,0.00,,,0.00,612.000000,,2013-02-11 21:11:00,
2013-02-11 14:22:00,22.0,6.0,-100.00,West,272,6.0,10.0,50,0.00,,,0.00,612.000000,,2013-02-11 21:22:00,
2013-02-11 14:32:00,22.0,6.0,-100.00,West,272,6.0,10.0,50,0.00,,,0.00,612.000000,,2013-02-11 21:32:00,
2013-02-11 15:02:00,22.0,5.0,-100.00,WSW,252,4.0,9.0,48,0.00,,,0.00,519.000000,,2013-02-11 22:02:00,
2013-02-11 15:11:00,22.0,5.0,-100.00,WSW,252,4.0,9.0,48,0.00,,,0.00,519.000000,,2013-02-11 22:11:00,
2013-02-11 15:22:00,22.0,5.0,-100.00,WSW,252,4.0,9.0,48,0.00,,,0.00,519.000000,,2013-02-11 22:22:00,
2013-02-11 15:32:00,22.0,5.0,-100.00,WSW,252,4.0,9.0,48,0.00,,,0.00,519.000000,,2013-02-11 22:32:00,
2013-02-11 16:02:00,19.0,3.0,-100.00,West,266,5.0,10.0,48,0.00,,,0.00,370.000000,,2013-02-11 23:02:00,
2013-02-11 16:11:00,19.0,3.0,-100.00,West,266,5.0,10.0,48,0.00,,,0.00,370.000000,,2013-02-11 23:11:00,
2013-02-11 16:21:00,19.0,3.0,-100.00,West,266,5.0,10.0,48,0.00,,,0.00,370.000000,,2013-02-11 23:21:00,
2013-02-11 16:32:00,19.0,3.0,-100.00,West,266,5.0,10.0,48,0.00,,,0.00,370.000000,,2013-02-11 23:32:00,
2013-02-11 16:52:00,16.0,-7.0,-100.00,WNW,295,4.0,13.0,34,0.00,,,0.00,112.000000,,2013-02-11 23:52:00,
2013-02-11 17:02:00,16.0,-7.0,-100.00,WNW,295,4.0,13.0,34,0.00,,,0.00,112.000000,,2013-02-12 00:02:00,
2013-02-11 18:02:00,11.0,-5.0,-100.00,SW,236,2.0,9.0,47,0.00,,,0.00,22.000000,,2013-02-12 01:02:00,
2013-02-11 18:11:00,11.0,-5.0,-100.00,SW,236,2.0,9.0,47,0.00,,,0.00,22.000000,,2013-02-12 01:11:00,
2013-02-11 18:22:00,11.0,-5.0,-100.00,SW,236,2.0,9.0,47,0.00,,,0.00,22.000000,,2013-02-12 01:22:00,
2013-02-11 18:32:00,11.0,-5.0,-100.00,SW,236,2.0,9.0,47,0.00,,,0.00,22.000000,,2013-02-12 01:32:00,
2013-02-11 19:02:00,5.0,-4.0,-100.00,SSE,149,0.0,3.0,64,0.00,,,0.00,0.000000,,2013-02-12 02:02:00,
2013-02-11 19:12:00,5.0,-4.0,-100.00,SSE,149,0.0,3.0,64,0.00,,,0.00,0.000000,,2013-02-12 02:12:00,
2013-02-11 19:21:00,5.0,-4.0,-100.00,SSE,149,0.0,3.0,64,0.00,,,0.00,0.000000,,2013-02-12 02:21:00,
2013-02-11 19:31:00,5.0,-4.0,-100.00,SSE,149,0.0,3.0,64,0.00,,,0.00,0.000000,,2013-02-12 02:31:00,
2013-02-11 20:02:00,3.0,-4.0,-100.00,NNE,17,1.0,3.0,73,0.00,,,0.00,0.000000,,2013-02-12 03:02:00,
2013-02-11 20:11:00,3.0,-4.0,-100.00,NNE,17,1.0,3.0,73,0.00,,,0.00,0.000000,,2013-02-12 03:11:00,
2013-02-11 20:21:00,3.0,-4.0,-100.00,NNE,17,1.0,3.0,73,0.00,,,0.00,0.000000,,2013-02-12 03:21:00,
2013-02-11 20:31:00,3.0,-4.0,-100.00,NNE,17,1.0,3.0,73,0.00,,,0.00,0.000000,,2013-02-12 03:31:00,
2013-02-11 21:01:00,4.0,-2.0,-100.00,ENE,72,0.0,3.0,77,0.00,,,0.00,0.000000,,2013-02-12 04:01:00,
2013-02-11 21:11:00,4.0,-2.0,-100.00,ENE,72,0.0,3.0,77,0.00,,,0.00,0.000000,,2013-02-12 04:11:00,
2013-02-11 21:21:00,4.0,-2.0,-100.00,ENE,72,0.0,3.0,77,0.00,,,0.00,0.000000,,2013-02-12 04:21:00,
2013-02-11 21:31:00,4.0,-2.0,-100.00,ENE,72,0.0,3.0,77,0.00,,,0.00,0.000000,,2013-02-12 04:31:00,
2013-02-11 22:01:00,3.0,-4.0,-100.00,SSW,210,0.0,2.0,73,0.00,,,0.00,0.000000,,2013-02-12 05:01:00,
2013-02-11 22:11:00,3.0,-4.0,-100.00,SSW,210,0.0,2.0,73,0.00,,,0.00,0.000000,,2013-02-12 05:11:00,
2013-02-11 22:21:00,3.0,-4.0,-100.00,SSW,210,0.0,2.0,73,0.00,,,0.00,0.000000,,2013-02-12 05:21:00,
2013-02-11 22:31:00,3.0,-4.0,-100.00,SSW,210,0.0,2.0,73,0.00,,,0.00,0.000000,,2013-02-12 05:31:00,
2013-02-11 23:01:00,4.0,-2.0,-100.00,NNE,15,2.0,3.0,75,0.00,,,0.00,0.000000,,2013-02-12 06:01:00,
2013-02-11 23:12:00,4.0,-2.0,-100.00,NNE,15,2.0,3.0,75,0.00,,,0.00,0.000000,,2013-02-12 06:12:00,
2013-02-11 23:21:00,4.0,-2.0,-100.00,NNE,15,2.0,3.0,75,0.00,,,0.00,0.000000,,2013-02-12 06:21:00,
2013-02-11 23:32:00,4.0,-2.0,-100.00,NNE,15,2.0,3.0,75,0.00,,,0.00,0.000000,,2013-02-12 06:32:00,
2013-02-11 23:52:00,4.0,-2.0,-100.00,East,96,0.0,5.0,76,0.00,,,0.00,0.000000,,2013-02-12 06:52:00,